Flag for U.S.A. Weather past 2 weeks in Little Rock, Arkansas, U.S.A.

Now
73 °F

Passing clouds.


Feels Like: 71 °F
Forecast: 72 / 92 °F
Wind: No wind

Location: Adams Field

Current Time: Sep 1, 2015 at 6:02:34 AM

Latest Report: Sep 1, 2015 at 4:53 AM


Visibility: 10 mi

Pressure: 30.05 "Hg

Humidity: 88%

Dew point: 69 °F

Location of Little RockLocation

Historic Weather in Little Rock — Graph

°F

Little Rock temperature yesterday

Maximum temperature yesterday: 94 °F (at 1:53 PM)
Minimum temperature yesterday: 71 °F (at 6:53 AM)
Average temperature yesterday: 82 °F

Past Weeks' High & Low Weather Summary

 TemperatureHumidityPressure
High96 °F (Aug 18, 3:53 PM)100% (Aug 19, 9:53 PM)30.18 "Hg (Aug 19, 9:53 PM)
Low63 °F (Aug 25, 5:53 AM)24% (Aug 25, 3:53 PM)29.75 "Hg (Aug 18, 6:53 PM)
Average78 °F66%30.01 "Hg
* Reported Aug 17 4:53 AM — Sep 1 4:53 AM, Little Rock, Weather by CustomWeather, © 2015

Note: Actual official high and low records may vary slightly from our data, if they occured in-between our weather recording intervals... More about our weather records

Advertising

Little Rock weather history for previous 24 hours

 ConditionsComfort  
Time TempWeatherWind HumidityBarometerVisibility
4:53 AM
Tue, Sep 1
73 °FPassing clouds.No wind88%30.05 "Hg10 mi
3:53 AM75 °FPassing clouds.3 mph82%30.05 "Hg10 mi
2:53 AM76 °FPassing clouds.3 mph80%30.04 "Hg10 mi
1:53 AM76 °FPassing clouds.No wind82%30.04 "Hg10 mi
12:53 AM75 °FClear.3 mph82%30.04 "Hg10 mi
11:53 PM
Mon, Aug 31
77 °FClear.No wind79%30.03 "Hg10 mi
10:53 PM80 °FClear.No wind69%30.03 "Hg10 mi
9:53 PM82 °FPassing clouds.No wind63%30.03 "Hg10 mi
8:53 PM84 °FPartly cloudy.3 mph61%30.02 "Hg10 mi
7:53 PM83 °FScattered clouds.6 mph63%30.00 "Hg10 mi
6:53 PM89 °FScattered clouds.6 mph48%29.99 "Hg10 mi
5:53 PM90 °FScattered clouds.5 mph43%30.00 "Hg10 mi
4:53 PM93 °FScattered clouds.8 mph40%29.99 "Hg10 mi
3:53 PM92 °FScattered clouds.7 mph40%30.00 "Hg10 mi
2:53 PM93 °FScattered clouds.10 mph40%30.01 "Hg10 mi
1:53 PM94 °FScattered clouds.10 mph36%30.03 "Hg10 mi
12:53 PM93 °FScattered clouds.7 mph44%30.05 "Hg10 mi
11:53 AM90 °FPassing clouds.3 mph52%30.07 "Hg10 mi
10:53 AM85 °FPassing clouds.5 mph61%30.08 "Hg10 mi
9:53 AM80 °FScattered clouds.No wind71%30.08 "Hg10 mi
8:53 AM77 °FScattered clouds.No wind82%30.07 "Hg7 mi
7:53 AM74 °FScattered clouds.No wind91%30.06 "Hg7 mi
6:53 AM71 °FPassing clouds.3 mph93%30.04 "Hg7 mi
Weather by CustomWeather, © 2015

See weather overviewHow to use our weather pages